Theta_e
302 296 294 294 297 299 299 298 298 298 294 293 293 292 291 292 293 295 296 298 297 293 293 294 295 295 295 297 298 300 301 300 300 300 300 301 301 302 302 303 304 304 305 310 309 308 308 308 307 309 310 309 307 305 305 305 307 308 308 309 308 309 309 310 312 313 314 313 313 313 312 311 312 311 312 311 312 311 310 309 309 308 307 306 304 304
297 295 295 298 299 300 298 298 297 296 295 293 293 292 291 293 291 295 295 297 296 292 292 294 293 294 295 297 298 300 299 299 299 300 301 301 302 303 302 303 304 304 307 309 308 308 308 307 308 308 308 308 306 307 305 305 305 307 307 308 309 308 307 308 310 311 312 314 313 312 312 311 311 310 308 308 309 309 309 308 308 307 307 305 304 303
294 292 297 299 300 295 295 294 294 294 293 294 292 292 291 292 294 296 296 295 293 291 292 294 291 292 295 297 299 299 299 300 301 301 302 301 301 302 303 304 304 304 305 306 306 307 306 307 306 306 306 305 306 306 305 305 304 305 306 307 308 308 307 307 308 310 311 312 313 312 311 310 310 310 309 309 308 307 306 306 306 306 306 305 304 303
291 295 298 300 297 295 294 294 293 293 293 292 292 290 289 294 291 290 294 292 293 292 291 292 290 293 296 299 299 300 300 300 302 302 302 301 301 301 302 303 302 302 303 304 303 302 302 302 302 302 302 302 304 304 303 302 303 303 304 305 306 307 307 307 307 308 310 311 311 311 308 308 308 307 307 306 305 305 305 304 304 304 304 304 304 303
295 297 295 295 296 294 293 294 293 292 292 295 293 292 291 292 293 292 292 293 294 295 292 293 293 295 297 296 297 298 298 297 299 300 301 302 304 303 305 305 304 302 301 300 301 301 300 299 299 299 299 300 300 301 301 301 301 301 303 304 305 306 306 306 306 306 308 308 307 307 306 305 305 304 303 303 303 303 303 303 302 302 303 303 303 303
294 297 296 294 293 293 293 292 294 294 291 293 295 293 293 294 292 293 294 291 290 291 291 291 287 290 294 295 296 300 302 302 301 301 301 301 301 302 301 303 304 302 302 300 298 298 298 298 298 298 298 297 297 298 299 300 301 301 302 302 304 304 305 304 305 305 305 305 305 304 303 302 301 301 301 300 301 301 300 300 302 301 301 302 302 302
295 293 295 295 294 293 293 293 296 295 292 290 292 294 293 293 293 292 291 291 287 286 291 292 286 285 294 294 297 298 299 300 302 302 302 302 300 301 301 300 299 299 299 299 297 297 296 296 296 296 296 296 296 296 299 299 300 300 301 302 303 303 304 304 304 304 304 304 304 303 303 303 302 301 302 302 302 301 301 302 300 300 300 301 301 301
292 292 293 294 293 293 293 291 295 294 292 290 294 291 292 291 291 292 291 290 289 292 293 290 291 287 288 294 297 298 298 298 299 300 301 300 299 299 298 298 298 297 297 297 296 295 295 295 295 295 295 295 295 296 297 297 298 299 300 301 301 302 302 303 303 303 303 302 303 302 302 302 302 302 302 301 301 301 301 300 300 300 299 300 300 300
293 291 292 292 292 292 292 295 296 295 293 292 291 292 292 292 292 291 291 290 289 287 286 288 291 286 288 293 296 295 293 296 297 298 299 299 297 298 298 296 296 296 296 295 294 294 294 294 294 294 294 295 296 296 295 296 297 298 299 300 301 301 301 301 301 302 302 302 302 302 302 301 302 302 302 302 301 300 300 299 299 299 299 298 299 299
291 294 295 296 293 292 296 291 294 295 293 292 291 292 291 291 291 291 290 290 289 286 284 288 290 286 288 293 293 293 294 295 296 297 300 298 295 296 295 295 295 295 295 295 294 294 294 294 294 294 295 294 295 295 296 296 296 297 298 298 298 298 299 300 300 301 301 302 301 301 301 301 301 301 301 301 300 300 300 298 298 298 298 297 297 298
292 293 292 293 294 295 293 289 291 294 292 291 293 294 293 291 291 290 290 289 287 283 286 290 290 290 285 292 294 293 295 296 296 298 300 301 296 295 294 294 294 294 294 294 294 294 294 294 294 294 293 293 294 294 295 295 295 296 296 297 296 296 298 299 299 300 300 301 301 300 301 300 300 301 301 299 299 299 299 298 298 298 297 297 297 297
292 292 293 295 293 292 294 291 290 289 289 292 291 290 290 290 288 288 287 288 284 283 288 289 290 290 283 289 293 295 293 292 295 296 297 297 294 294 293 293 293 293 293 293 293 293 293 293 293 293 293 293 293 293 293 294 295 295 295 295 294 294 295 297 297 298 299 299 300 300 300 300 300 300 300 299 298 299 298 298 297 298 297 296 297 297
289 291 294 294 295 294 293 292 291 291 291 291 289 288 285 284 285 283 285 281 283 283 286 286 288 285 285 292 294 296 297 296 297 295 294 293 293 293 293 292 292 293 292 292 292 292 292 291 291 291 292 292 292 292 292 293 293 294 294 294 294 293 294 295 296 296 297 298 298 299 299 299 299 299 299 299 299 299 298 298 297 297 296 296 296 295
293 290 290 294 294 294 295 290 290 289 289 289 288 287 284 281 281 279 283 282 282 286 286 286 289 284 291 293 297 296 299 296 293 292 292 292 292 291 292 292 292 292 292 291 291 291 291 291 291 291 291 291 292 292 292 292 292 293 293 293 293 293 294 294 294 295 295 296 297 297 298 298 298 298 298 298 298 298 299 298 298 298 297 297 296 296
287 289 292 291 293 296 294 295 295 294 288 289 294 290 287 287 283 278 281 279 281 284 284 287 284 284 285 291 295 298 297 294 292 291 292 291 292 292 292 291 291 291 290 291 291 290 290 291 291 291 291 291 291 292 292 292 292 292 292 292 292 292 293 293 294 294 294 294 295 296 296 297 297 297 297 298 298 298 298 298 298 298 298 297 297 297
290 291 296 295 293 294 293 297 295 291 289 289 290 291 286 286 289 282 285 284 284 284 284 282 284 290 290 297 296 297 294 291 291 291 291 290 290 291 289 289 289 289 289 290 290 290 290 290 291 291 291 291 291 291 291 291 291 291 291 291 292 291 292 292 293 293 293 293 294 294 295 295 296 296 296 296 297 297 297 297 297 297 298 298 297 298
290 288 293 291 289 293 294 293 293 296 286 289 288 285 289 294 291 287 286 287 285 283 281 289 287 291 296 296 298 296 290 290 290 290 289 289 289 289 288 288 288 288 288 289 289 289 289 290 290 290 290 290 290 291 290 291 291 291 290 290 290 291 292 292 292 293 293 293 293 293 293 294 294 295 295 295 296 296 297 297 297 297 297 298 298 298
288 290 293 292 291 293 289 292 293 293 296 290 285 290 291 293 292 287 281 284 283 279 281 287 283 286 287 284 296 292 290 288 288 288 288 288 288 287 287 287 287 287 288 288 289 289 289 289 289 289 290 290 290 290 290 290 291 291 291 290 290 290 290 291 292 292 292 292 292 292 292 293 293 293 294 294 294 295 295 296 296 296 296 296 297 297
294 286 293 295 296 291 290 292 292 295 294 292 290 295 288 284 283 288 284 276 277 277 280 284 286 286 288 287 293 293 289 289 287 287 287 286 286 286 286 286 286 287 287 287 287 288 288 288 288 289 289 289 290 290 290 290 291 290 290 290 290 289 290 290 291 291 292 292 292 292 292 292 292 292 293 293 294 294 294 294 295 295 295 296 296 295
294 285 289 293 292 291 291 292 286 290 292 292 293 291 294 289 287 285 285 285 284 278 279 279 284 281 291 291 294 293 289 289 288 286 285 284 284 284 285 285 285 285 286 286 286 287 287 288 288 288 288 289 289 289 290 290 290 289 289 289 289 289 289 289 290 290 290 291 291 291 291 292 292 292 292 292 292 292 293 293 294 294 294 294 294 294
289 294 283 292 289 292 287 291 288 292 288 288 288 287 288 287 290 289 287 285 283 280 280 279 278 284 291 295 293 290 289 289 288 286 285 284 284 284 284 284 285 285 285 285 285 286 287 287 288 288 289 289 289 290 290 290 289 289 289 288 288 288 288 288 289 290 290 290 290 290 290 291 291 291 291 291 291 291 292 292 293 293 294 294 294 294
289 289 284 288 289 288 290 296 294 294 294 292 290 287 288 286 283 280 279 290 285 283 279 279 277 285 293 292 292 289 289 288 288 286 284 284 283 284 284 284 284 284 284 285 285 286 286 286 287 288 288 289 289 288 288 289 289 288 288 288 288 288 288 288 289 289 289 290 290 289 289 290 290 291 291 290 291 291 290 291 291 292 293 293 293 293
294 292 289 285 288 289 293 295 295 294 294 293 293 290 292 291 290 284 278 282 286 285 287 284 281 283 288 289 290 289 288 288 287 286 285 284 284 284 285 285 285 285 285 285 285 286 286 287 287 288 288 288 287 288 288 288 288 288 288 288 288 287 288 288 289 289 289 289 288 288 288 289 289 289 289 289 290 290 290 291 291 291 291 291 292 293
292 283 282 285 290 292 294 296 296 292 293 291 291 292 291 288 289 287 286 286 283 284 282 283 279 283 287 289 288 287 287 286 286 286 284 284 284 284 284 285 285 285 286 286 287 287 287 287 288 288 288 288 288 288 288 288 288 287 288 287 287 286 287 288 288 288 288 288 287 288 287 287 287 288 288 288 289 289 290 290 290 291 291 291 291 291
286 288 287 282 282 284 287 290 291 291 291 289 289 292 292 292 292 290 288 286 281 281 283 280 275 283 289 287 286 286 286 284 284 285 285 284 284 284 284 284 284 285 285 285 285 286 286 287 287 287 288 288 287 287 288 287 287 287 287 287 286 286 287 288 288 288 287 287 287 287 287 286 286 285 286 287 288 288 289 289 289 290 290 290 290 290
288 287 285 279 276 275 274 276 279 283 286 289 289 289 290 289 288 286 282 284 279 282 284 280 280 288 288 286 285 285 284 284 284 283 284 284 284 283 283 284 283 284 284 284 285 285 285 286 286 287 287 287 287 286 287 286 286 286 286 286 286 285 286 287 287 287 287 286 286 287 286 286 286 285 284 285 286 287 288 289 289 288 288 289 288 288
287 286 286 284 282 280 282 285 291 290 288 284 286 287 287 289 288 286 284 280 277 281 281 282 283 283 285 288 288 289 284 285 283 283 283 283 283 283 283 284 284 284 284 283 284 285 285 285 285 286 287 287 286 286 286 286 286 286 285 285 285 285 285 286 286 286 286 286 286 286 286 286 286 286 285 285 285 286 287 287 288 288 288 288 288 288
287 284 286 286 285 286 287 287 289 289 286 286 285 285 288 287 287 285 282 279 285 281 275 283 284 283 284 288 287 289 286 286 286 285 284 284 284 283 283 283 283 283 284 284 284 284 284 284 285 285 286 286 286 286 286 286 286 285 285 285 285 285 285 285 285 285 285 285 285 286 286 286 286 286 286 286 286 285 285 286 287 287 288 288 288 288
286 282 285 286 285 287 288 287 288 287 287 286 286 286 285 287 286 283 283 285 285 279 277 283 285 283 285 287 288 289 290 287 286 285 285 284 284 283 283 282 282 282 283 283 283 284 284 284 285 285 285 286 286 285 285 285 285 285 285 285 285 284 284 285 284 284 284 284 284 285 286 286 286 286 285 285 286 286 286 285 285 286 286 287 288 288
287 283 285 286 283 284 286 286 287 285 285 285 285 285 286 285 285 285 285 286 285 283 284 284 284 284 286 287 289 287 284 283 283 285 285 283 283 283 282 281 281 281 282 282 283 284 284 284 285 285 285 285 286 285 285 285 285 285 284 284 285 284 284 284 283 283 283 283 283 284 285 285 285 284 284 284 285 285 286 286 285 285 285 285 286 287
285 281 285 284 282 281 284 286 286 285 284 281 284 285 285 285 285 285 285 285 285 283 283 283 282 282 287 288 285 283 284 284 284 281 282 283 283 283 282 281 281 281 281 282 283 283 284 284 285 285 285 285 285 285 285 284 285 284 284 284 284 283 283 283 282 283 282 282 283 284 284 284 283 283 282 282 283 284 285 285 285 284 284 284 285 286
285 279 283 280 278 278 282 282 282 283 281 280 280 281 282 282 281 282 281 284 282 280 282 282 280 280 284 282 283 282 282 281 280 281 281 282 283 283 283 282 281 281 281 282 282 283 284 284 284 285 285 285 285 285 285 284 284 283 283 283 283 282 282 282 282 281 282 282 282 283 283 283 282 281 281 281 282 284 284 285 284 284 284 284 284 284
283 280 277 278 275 275 280 280 277 276 276 274 275 279 281 282 283 284 285 285 284 284 280 278 279 281 280 282 282 282 280 281 281 281 281 282 283 283 283 283 282 282 282 282 282 283 283 284 284 285 285 285 285 285 285 285 284 283 283 283 282 282 281 281 281 281 281 281 281 282 282 282 280 279 279 279 280 282 284 284 283 283 283 283 284 284
282 280 279 280 274 274 278 277 276 273 267 270 282 284 284 281 282 280 280 282 284 284 280 281 278 278 280 280 279 279 281 280 281 282 284 282 282 282 283 284 283 282 282 283 283 283 284 285 285 285 286 285 286 285 286 285 284 283 283 283 282 281 280 280 280 280 280 280 281 281 281 281 279 278 278 278 279 281 283 283 282 282 282 283 283 283
280 280 278 280 275 273 277 276 272 267 268 279 281 283 282 281 281 280 281 282 282 281 278 279 279 280 281 280 279 280 280 281 283 283 283 284 284 283 283 283 284 283 283 283 283 284 284 285 285 285 285 286 286 285 285 284 284 284 282 282 281 280 280 280 279 279 279 279 280 280 280 279 278 277 277 277 278 280 282 281 281 281 281 281 282 282
279 279 279 277 278 274 272 271 266 267 274 275 279 281 283 282 281 280 279 282 282 281 281 280 280 280 281 280 280 281 281 281 283 284 284 284 284 283 283 283 284 284 282 283 283 283 284 284 284 284 285 286 286 285 284 284 284 283 281 282 280 280 279 279 278 278 279 278 279 279 279 278 277 276 276 276 276 278 279 280 279 279 279 279 280 282
282 280 279 274 279 270 273 272 271 277 275 277 277 279 279 277 279 278 273 277 281 281 280 280 280 279 280 281 281 282 282 282 280 281 284 284 284 285 284 284 284 284 284 284 284 284 285 285 285 285 285 285 284 283 283 283 283 281 281 280 279 279 278 278 277 277 278 278 278 278 278 277 276 275 274 274 274 275 277 278 278 277 278 277 278 279
282 277 278 275 271 278 272 270 270 269 265 271 277 278 283 281 281 281 277 275 279 278 280 280 278 279 280 281 281 282 281 278 275 278 283 284 285 285 285 285 286 286 285 285 285 286 286 286 285 285 284 283 283 283 283 282 281 280 279 279 279 278 277 277 277 277 277 277 277 278 277 276 275 273 273 273 273 274 275 277 277 276 276 276 276 277
281 281 279 276 272 274 271 268 267 265 267 276 275 279 279 278 280 281 277 272 280 278 280 280 279 279 279 279 280 280 278 274 274 278 282 283 283 285 285 286 286 286 286 285 285 284 284 284 284 283 282 282 281 282 282 281 279 278 277 277 277 277 276 276 276 277 276 277 277 277 276 275 274 273 272 272 272 273 274 275 274 274 274 274 275 275
275 276 276 272 271 271 270 268 266 271 269 276 278 280 280 282 283 278 267 269 277 279 280 279 279 279 279 280 280 279 277 273 274 278 282 283 284 284 284 285 285 285 285 285 285 284 283 283 282 281 281 280 280 281 280 279 278 277 276 276 276 275 275 275 276 277 277 277 276 276 275 274 273 272 271 271 271 272 273 274 273 272 272 272 273 273
272 272 275 269 270 271 272 269 271 272 278 279 279 280 280 282 279 269 266 274 277 279 279 279 279 279 280 279 280 277 279 280 280 282 283 284 282 283 284 285 285 285 284 284 283 283 281 281 280 279 279 279 279 279 279 278 276 275 275 275 275 274 275 276 276 276 275 275 275 274 273 273 272 271 271 271 271 272 272 271 271 270 270 270 271 272
267 266 269 272 270 269 270 268 268 272 278 280 279 279 281 277 269 269 276 277 278 278 280 279 279 280 279 279 279 280 280 282 284 284 284 284 284 284 284 284 284 284 284 283 282 281 280 279 279 278 278 279 279 278 278 277 275 274 274 274 273 274 275 275 275 274 273 273 273 272 271 271 271 270 270 270 270 269 269 269 269 269 269 269 269 270
271 267 268 269 270 271 270 267 267 263 274 277 278 276 279 273 275 277 277 279 279 279 280 279 278 279 280 279 280 281 281 282 282 282 283 283 283 283 284 284 283 282 281 280 280 280 278 277 277 277 277 277 277 277 276 275 273 272 272 272 273 274 274 273 273 272 272 271 270 270 270 270 269 269 269 268 269 268 267 268 267 267 267 267 268 268
277 269 270 271 274 267 267 265 266 274 277 279 278 274 278 279 281 281 280 278 281 280 279 278 279 280 280 280 280 280 281 281 281 282 282 282 283 283 283 282 280 280 279 279 279 278 277 276 276 275 275 275 275 275 274 273 271 271 270 270 272 272 272 271 271 270 270 269 269 268 268 268 268 268 268 267 267 267 266 266 266 266 266 267 267 268
277 272 274 270 274 272 269 273 277 278 278 280 280 280 281 282 282 281 280 280 279 280 281 279 279 280 281 280 280 280 279 280 280 281 281 281 281 281 279 278 278 277 277 277 276 276 275 274 273 272 272 273 272 273 272 271 270 269 268 269 271 270 269 269 268 267 267 266 266 266 266 266 266 266 266 266 266 265 265 265 265 265 265 266 267 268
280 280 280 276 273 278 279 279 280 280 280 280 281 281 280 281 282 281 280 278 280 280 281 280 280 280 280 280 279 279 280 280 280 280 280 280 279 278 277 277 276 277 276 275 274 274 272 271 271 270 269 270 270 270 270 269 269 266 267 268 268 267 267 266 265 264 264 264 264 264 264 264 264 264 264 264 265 264 264 264 264 264 265 266 267 268
277 278 274 273 276 273 268 278 278 278 280 280 281 282 282 281 281 281 280 280 280 281 281 281 280 280 280 279 279 278 279 279 278 278 278 277 277 276 275 275 275 274 273 272 272 271 269 269 268 267 267 267 268 268 267 266 266 265 265 265 265 264 263 262 262 261 262 262 262 262 262 262 262 263 263 263 263 264 264 264 264 264 265 266 266 267
273 280 275 274 274 272 272 277 278 280 280 281 281 280 280 281 282 282 282 281 281 281 279 278 278 278 278 277 278 277 277 277 275 275 275 275 274 274 273 273 272 272 271 271 270 269 267 267 266 265 265 264 265 265 264 263 263 263 262 262 262 262 261 260 260 260 260 260 260 260 261 261 261 261 261 262 262 262 262 263 264 263 264 264 265 265
277 277 270 275 273 275 277 278 278 279 279 279 280 281 281 281 281 281 282 281 279 278 277 275 275 276 276 276 275 274 273 274 274 273 272 272 272 272 271 270 270 269 269 268 267 267 265 265 264 263 262 262 262 262 261 261 261 261 261 261 261 260 259 259 259 259 259 259 259 259 260 260 260 260 260 260 261 261 262 261 262 262 263 264 265 266
277 272 276 274 270 271 272 275 278 272 272 277 280 281 281 282 281 280 280 277 277 276 274 274 272 273 273 273 273 273 271 272 272 271 270 270 270 269 269 268 267 267 266 266 266 265 264 263 262 261 260 260 261 260 260 260 260 260 260 260 260 260 259 258 258 258 258 259 259 259 259 260 260 260 260 260 260 260 260 264 267 265 263 263 267 270
275 276 276 272 271 271 277 279 279 279 278 279 280 281 281 280 279 278 278 279 276 273 272 272 272 271 271 271 271 269 269 269 269 269 268 268 268 268 267 266 265 265 264 264 263 262 261 260 260 259 259 259 260 259 259 259 259 259 260 260 260 259 259 258 258 258 258 258 258 259 259 259 259 259 259 259 260 259 259 260 261 267 268 269 269 270
Wind_Speed
1 7 7 8 12 9 11 14 17 10 3 3 5 7 12 13 14 16 17 13 2 8 11 16 18 15 14 14 17 21 22 20 19 14 16 18 17 13 7 9 10 11 11 5 6 6 5 6 7 7 7 7 7 5 7 6 6 7 8 7 9 7 10 9 9 9 10 10 9 9 10 11 9 10 10 10 10 9 10 10 11 11 11 11 12 13
2 7 9 14 16 10 5 5 7 10 9 10 11 11 13 9 16 13 13 11 4 4 6 9 15 16 18 18 20 21 19 20 17 18 18 19 16 8 7 9 8 9 7 7 8 7 3 6 8 8 7 7 12 10 5 4 5 5 6 8 7 5 8 9 9 9 9 10 9 9 10 9 9 9 10 10 10 10 8 9 10 10 11 11 12 11
6 9 11 16 6 5 1 2 5 9 11 10 9 8 7 11 15 12 15 3 3 3 9 7 13 16 20 23 21 14 15 15 15 17 14 9 12 12 10 10 10 10 11 10 10 10 11 11 13 12 13 12 12 10 9 9 7 6 5 6 7 6 7 8 9 8 9 8 8 8 6 7 7 6 7 8 7 8 9 8 10 10 11 11 11 11
6 8 17 10 4 4 4 6 5 7 6 7 7 6 10 10 7 9 3 3 1 2 12 13 16 15 20 18 14 11 9 10 16 8 6 4 9 11 11 10 10 10 10 13 14 15 16 16 16 16 16 15 13 11 10 10 8 5 4 5 6 6 6 6 8 8 7 6 5 6 2 3 5 4 5 5 4 6 7 8 9 9 10 11 11 12
11 2 4 3 3 7 10 7 7 8 10 6 8 9 11 13 11 9 10 7 12 10 0 9 11 9 3 1 4 2 4 12 3 1 6 5 5 5 5 4 6 11 12 13 16 18 19 19 19 18 17 16 15 13 12 11 9 6 8 6 5 5 5 6 6 8 7 4 4 4 1 0 2 2 4 5 8 7 7 7 7 9 9 10 10 10
11 3 4 2 2 2 5 7 10 9 9 8 8 13 14 15 16 15 12 8 6 5 4 11 12 2 3 2 4 9 10 12 2 6 6 4 5 6 8 10 11 12 12 15 15 15 16 17 17 18 18 17 15 14 13 11 11 11 9 8 6 3 3 4 4 6 6 6 6 5 6 7 7 8 8 9 9 7 9 10 7 8 9 9 9 9
5 3 1 6 4 3 5 8 5 6 8 6 5 1 7 9 9 9 10 6 5 4 3 6 5 10 5 12 7 7 12 12 9 8 7 9 9 8 11 12 12 14 13 9 16 20 21 20 19 19 18 17 16 15 12 12 13 13 11 9 7 4 2 1 2 5 5 5 6 7 8 8 8 8 6 6 6 7 6 7 8 8 9 11 12 11
4 2 5 3 6 6 5 8 7 10 5 6 3 2 1 1 3 4 3 3 8 3 6 6 7 9 12 3 7 10 11 6 7 8 9 8 9 12 11 13 14 12 11 10 17 19 18 18 18 19 18 17 17 14 13 13 14 16 14 11 8 5 3 2 1 4 4 6 6 6 7 6 7 7 6 3 5 4 6 7 8 8 8 10 10 10
5 5 5 5 5 5 8 6 6 9 7 1 1 2 1 3 2 1 3 5 3 6 6 4 3 5 7 3 4 3 4 2 5 9 8 11 11 11 14 15 13 12 13 15 17 19 18 18 18 17 18 17 17 16 16 15 14 14 13 11 9 7 6 4 2 1 3 4 4 5 6 7 7 6 6 3 3 4 4 7 7 8 8 8 10 10
2 0 3 5 5 7 5 1 6 9 8 3 3 5 4 3 3 1 3 5 5 4 9 7 8 5 14 5 6 1 1 2 4 6 7 15 11 12 14 13 12 11 12 15 17 16 16 16 15 15 14 18 16 15 16 16 15 14 12 12 12 11 8 7 4 1 1 3 3 4 5 7 6 5 5 5 4 4 4 6 8 7 7 7 9 10
3 0 1 3 7 2 5 4 2 1 3 4 3 3 1 1 0 1 0 2 3 7 7 10 12 7 9 2 4 6 3 2 8 5 11 10 13 14 12 12 10 12 14 14 14 14 14 12 13 14 17 17 19 17 18 17 16 15 14 13 14 13 10 10 8 6 4 3 3 4 5 7 7 7 6 6 6 5 5 6 7 7 7 7 8 8
3 2 2 3 3 3 3 5 3 1 2 0 0 2 6 4 3 3 0 1 3 9 2 3 9 11 7 3 3 1 1 2 5 9 12 12 14 13 12 12 13 14 13 13 13 14 15 15 16 16 18 18 17 20 20 17 15 13 13 14 16 16 14 11 9 9 7 5 4 5 6 6 7 7 6 7 8 7 7 7 7 6 6 7 7 8
4 8 2 3 1 6 4 3 2 2 0 2 1 2 3 4 3 4 3 3 6 9 3 2 4 4 15 10 1 1 6 4 2 8 8 10 12 11 11 12 11 11 12 13 13 13 14 14 15 17 16 16 18 16 17 16 14 14 15 17 17 17 16 13 12 10 9 7 7 6 7 7 7 7 8 8 8 7 6 6 7 7 7 7 8 9
2 4 3 6 1 6 8 7 3 2 6 6 5 3 2 5 5 7 4 1 5 2 2 1 4 10 12 7 13 14 8 11 11 10 13 13 11 10 9 9 11 11 12 12 12 12 13 13 12 13 14 15 14 16 15 15 15 14 14 17 19 18 17 15 14 12 11 9 8 8 7 7 7 8 7 7 8 8 7 6 7 8 8 8 10 10
8 6 6 9 4 8 12 11 6 1 7 9 2 7 4 5 3 6 3 10 9 8 2 3 1 4 3 5 1 2 10 15 12 12 11 11 9 7 8 9 10 12 12 11 11 12 13 13 13 12 13 13 13 14 14 13 13 12 13 16 18 18 19 18 16 14 14 11 9 8 7 7 7 7 8 8 7 7 7 7 8 8 8 8 8 9
9 10 2 3 3 8 10 6 6 6 1 2 1 2 1 7 2 9 7 9 9 9 3 4 6 1 7 3 5 4 11 12 10 11 10 10 8 6 9 11 10 10 10 10 10 11 12 13 13 12 13 12 12 13 12 14 13 15 15 15 16 17 16 16 17 16 14 13 11 11 10 8 8 7 8 8 8 8 8 8 8 9 9 8 8 7
2 7 4 1 3 8 2 3 4 3 7 4 5 6 6 4 3 6 3 2 1 2 12 6 7 9 8 13 16 7 16 9 9 9 8 8 7 9 10 9 9 8 9 9 9 10 12 13 13 12 13 12 12 12 14 14 14 14 13 13 14 15 14 15 15 15 14 14 13 13 12 11 10 9 9 9 10 10 9 8 8 9 9 8 8 7
10 12 3 4 5 5 4 2 3 2 1 7 4 4 3 1 3 2 6 1 6 13 10 7 14 15 11 11 10 12 11 7 7 6 8 8 7 10 8 8 8 8 7 7 8 8 9 9 11 11 11 13 13 14 14 15 13 11 11 13 14 15 17 15 14 13 13 13 12 12 12 13 12 10 10 9 10 10 9 9 8 8 8 9 7 7
3 8 7 4 6 3 1 3 5 4 4 4 1 4 4 4 6 6 2 5 8 11 11 11 18 19 16 17 11 7 12 6 4 5 6 7 8 8 7 6 6 6 6 7 8 8 9 10 10 10 10 10 10 10 11 10 11 12 13 13 14 15 14 13 11 11 11 11 9 9 11 11 10 10 10 10 10 9 9 10 10 10 9 8 7 6
1 6 4 2 3 3 3 4 7 5 2 2 1 3 1 3 9 8 5 1 5 13 11 13 15 13 10 16 17 4 10 7 6 5 5 6 6 4 3 3 3 3 4 4 4 4 4 4 5 6 7 7 8 8 8 9 9 12 12 13 13 12 11 12 14 13 12 11 10 10 10 11 11 10 9 9 10 10 10 11 11 10 10 10 7 6
1 1 7 2 1 1 4 7 7 6 5 6 5 7 3 3 2 2 3 4 8 11 13 14 15 10 8 3 2 7 8 7 5 5 4 4 4 3 4 3 3 4 4 4 4 4 5 5 5 5 4 4 4 5 6 7 9 9 10 12 13 13 13 12 10 10 10 10 10 11 12 11 10 12 10 10 9 9 10 11 11 10 9 9 8 8
2 4 10 8 6 8 12 4 5 4 4 5 7 9 11 7 6 7 11 8 5 8 11 11 16 9 1 4 6 9 6 7 6 7 6 5 4 3 2 3 3 4 4 5 5 5 6 6 6 6 5 6 6 7 9 9 10 12 12 11 10 10 11 10 11 10 9 8 8 10 11 11 10 10 11 12 11 10 10 10 11 11 10 10 10 8
3 1 5 10 10 11 8 4 3 2 2 2 4 8 4 7 6 9 14 10 9 8 9 11 12 5 4 4 6 7 7 6 6 6 6 4 4 2 2 2 2 3 4 4 4 4 4 5 6 6 8 9 10 10 11 10 11 10 10 10 10 11 12 11 10 9 9 9 9 9 9 10 10 11 12 13 12 13 12 11 11 11 11 11 10 9
5 1 2 9 8 6 8 10 1 4 4 3 5 5 4 11 11 11 11 5 5 6 8 9 11 2 1 4 6 6 7 5 4 4 5 4 2 2 3 4 4 5 6 6 5 5 6 6 7 7 8 8 8 9 9 8 9 9 9 10 10 11 11 10 10 9 9 9 10 9 9 11 11 12 12 12 10 12 12 12 11 10 10 11 10 11
3 4 3 6 6 5 7 6 8 3 2 3 4 3 4 7 8 9 7 2 9 9 16 13 16 7 5 4 5 6 6 7 6 4 5 5 4 3 3 3 4 6 7 9 9 9 9 10 11 10 9 9 9 9 9 9 9 8 8 8 9 9 9 10 9 10 10 10 11 11 10 10 10 11 13 13 11 11 11 11 10 10 11 11 10 11
1 4 3 7 8 10 10 10 8 3 1 1 1 2 3 2 7 7 8 7 12 6 17 14 13 8 6 5 6 7 8 7 7 6 4 4 4 3 2 2 2 3 3 5 6 8 9 8 8 9 10 9 9 9 9 9 9 8 8 8 7 8 8 8 8 9 10 11 11 10 11 10 11 11 11 11 12 12 11 10 10 10 9 9 11 9
2 2 5 7 10 12 12 10 1 2 3 6 7 4 10 10 5 6 6 9 12 9 10 6 10 13 13 12 11 8 6 7 9 8 7 5 4 3 2 1 1 0 1 0 1 1 3 5 7 8 9 8 9 9 8 9 9 9 9 10 9 9 8 8 9 9 9 9 9 9 11 11 10 10 11 11 10 10 11 11 11 10 10 9 9 9
2 6 10 14 14 17 18 17 17 15 19 18 18 19 15 15 13 14 12 15 8 11 14 8 17 13 12 14 9 5 5 6 6 6 6 5 4 3 2 1 2 1 0 0 1 2 2 3 4 6 7 8 8 9 8 7 7 8 9 10 10 10 10 9 10 10 10 10 9 9 9 9 10 10 10 10 10 10 10 11 12 11 11 10 10 9
5 11 10 13 16 16 18 19 18 19 18 17 18 18 19 18 17 18 18 20 18 14 17 10 16 20 18 18 16 21 6 5 6 6 5 4 3 3 3 2 1 1 2 3 3 3 3 4 4 5 6 6 8 9 9 8 8 8 8 7 8 8 9 10 10 10 10 10 11 10 10 9 8 8 10 11 11 11 11 11 11 12 12 11 10 8
2 11 11 13 14 13 16 18 16 18 17 18 19 22 20 20 23 23 24 21 22 23 21 22 22 26 20 21 18 3 5 3 3 4 4 5 5 3 3 2 3 4 4 5 4 4 4 4 5 5 6 7 7 7 7 7 8 8 9 9 8 8 8 9 9 9 9 9 10 10 10 10 9 9 10 11 11 11 11 11 11 11 11 12 11 11
2 6 7 5 8 11 12 14 15 16 16 19 19 19 20 21 22 19 17 17 16 17 19 20 21 22 13 2 5 4 4 3 2 3 4 4 5 5 5 4 3 3 4 4 5 5 6 6 6 6 7 7 7 7 6 6 6 7 8 8 9 9 9 9 9 9 9 10 10 10 9 9 9 10 11 11 11 9 9 12 11 10 11 11 10 12
1 5 5 2 7 7 7 11 13 9 7 13 12 14 18 21 21 17 19 12 14 18 21 22 19 17 1 4 6 6 3 2 2 2 3 3 4 5 6 6 5 4 5 5 5 6 6 7 7 7 8 8 8 7 7 6 6 7 7 7 8 8 9 9 9 10 9 9 10 10 9 9 10 10 10 10 10 10 9 9 9 10 10 11 11 10
2 1 3 3 8 7 3 4 5 5 8 11 12 17 19 19 18 18 19 17 19 20 18 15 15 2 3 4 4 3 4 2 4 5 4 5 5 6 8 8 7 6 6 6 6 6 7 8 8 9 9 8 8 7 8 7 7 7 7 7 7 7 8 9 9 9 10 10 10 10 9 9 9 9 10 9 11 11 10 9 9 9 10 11 10 10
4 5 8 6 9 7 9 5 2 6 11 12 2 6 11 17 15 18 16 17 18 12 6 2 1 2 3 4 3 2 3 4 5 6 4 4 5 6 9 10 10 8 7 7 7 8 7 7 7 8 8 9 9 9 8 7 8 8 8 7 7 7 8 8 9 9 10 10 10 10 9 9 7 9 10 10 11 11 10 10 10 10 10 10 10 9
8 8 12 7 9 8 7 7 8 17 16 1 3 1 2 4 4 11 14 16 12 1 1 2 5 5 8 3 2 1 3 5 6 7 6 6 6 8 10 10 10 10 9 8 8 8 8 8 8 8 9 9 8 8 8 8 8 8 8 7 8 7 8 8 9 9 9 10 10 9 8 7 8 8 10 10 11 11 12 11 11 11 10 10 11 10
10 11 10 9 9 2 3 6 13 10 4 4 1 2 2 2 7 9 13 16 9 5 7 6 6 6 5 2 3 4 5 6 5 8 7 8 8 9 10 10 11 10 9 7 8 9 9 9 9 10 10 9 8 9 8 9 9 9 10 8 8 8 8 8 8 10 10 9 10 8 9 7 8 9 9 11 12 12 13 12 12 12 11 11 11 10
15 9 9 11 7 12 8 11 15 8 13 10 10 6 7 9 9 9 11 6 6 5 4 6 8 5 3 5 6 4 1 2 5 9 10 9 10 11 12 13 12 11 10 9 8 10 10 10 10 10 9 9 9 10 9 9 9 9 10 9 7 7 8 8 9 10 11 10 10 9 8 8 8 9 10 10 12 13 13 12 12 12 10 12 12 12
12 12 6 9 4 12 15 15 13 9 10 4 0 1 2 2 1 2 1 5 5 1 2 5 3 2 3 5 6 3 2 2 7 9 5 10 9 10 11 12 13 11 10 9 9 8 9 8 8 8 8 10 11 10 9 8 9 9 10 10 10 8 9 10 11 12 10 11 10 10 8 6 7 9 10 10 12 13 13 13 11 11 10 11 13 13
6 11 11 12 6 9 8 10 9 9 4 4 6 2 1 2 1 1 1 7 2 5 1 2 2 3 3 5 5 6 3 5 8 9 6 4 6 8 9 9 11 11 10 10 9 9 8 8 8 9 10 11 13 12 10 9 9 9 10 11 11 10 11 11 12 12 11 12 11 10 7 6 7 8 9 11 12 12 14 13 12 12 11 11 12 14
4 6 6 6 9 8 10 10 12 4 4 3 2 2 2 1 4 2 11 6 4 6 2 3 6 5 4 6 4 5 6 8 8 10 9 8 5 7 8 9 10 10 10 9 7 5 6 7 8 10 11 12 13 13 11 10 9 10 12 12 11 11 12 11 12 13 12 12 12 9 7 6 7 8 9 11 12 12 12 11 12 12 12 13 12 13
1 1 6 11 11 11 14 10 9 9 7 6 6 4 3 2 1 6 16 2 4 6 5 4 6 6 4 4 5 6 9 11 12 12 13 7 3 7 9 9 10 8 9 8 6 4 6 7 8 10 12 12 13 12 10 7 7 10 11 11 11 13 12 13 13 13 13 12 11 9 9 8 8 10 11 11 12 12 12 11 12 13 13 13 14 14
1 3 4 3 9 11 11 13 11 11 5 5 1 7 4 2 6 13 1 3 4 5 5 6 6 7 7 9 9 10 11 11 11 10 11 12 11 10 10 11 11 10 7 5 4 4 5 8 10 12 13 13 12 10 8 6 8 11 12 11 14 13 13 13 13 13 12 12 12 10 8 8 10 10 11 11 11 12 13 12 12 12 14 13 14 16
3 2 5 6 2 2 4 7 8 10 1 3 5 4 2 5 5 1 2 2 4 5 4 6 7 9 9 9 11 11 11 11 11 12 12 13 12 12 12 10 7 8 9 9 9 6 5 10 12 13 15 13 13 11 9 9 13 11 12 14 16 15 15 14 15 14 13 12 12 10 11 11 11 11 11 11 11 12 14 14 13 14 13 14 15 17
2 8 7 6 3 9 8 7 5 3 1 4 5 4 2 4 5 8 6 11 8 4 5 4 8 9 9 10 10 10 10 10 11 11 12 12 12 10 8 5 4 5 7 8 9 10 9 11 12 13 15 14 12 10 9 10 13 13 15 18 17 16 14 14 14 13 13 12 12 12 13 13 14 13 13 13 13 13 15 15 14 14 14 14 14 15
9 11 8 9 3 5 6 8 2 2 3 5 6 8 11 12 12 10 6 8 8 8 5 5 8 8 8 9 10 10 10 10 11 11 12 12 9 7 5 5 6 7 8 10 11 10 8 10 13 14 16 16 14 13 11 9 12 16 17 17 16 16 16 16 16 15 15 15 14 14 14 14 14 14 12 12 13 15 16 19 15 15 14 14 15 15
8 7 1 3 4 7 9 10 7 9 12 10 8 9 12 12 10 5 5 6 8 9 6 7 8 8 8 5 6 8 9 10 10 10 9 8 8 7 5 7 8 8 8 8 9 9 8 10 11 13 15 19 16 14 12 11 11 16 18 18 17 17 16 18 19 19 18 19 17 17 17 18 18 17 17 17 15 17 16 18 16 15 15 14 14 15
11 8 3 7 9 10 10 13 13 16 15 13 13 9 8 8 10 9 7 8 8 8 7 5 7 8 7 3 6 8 9 7 7 8 7 7 7 7 8 8 9 9 9 9 9 9 10 9 11 13 15 18 17 13 12 12 12 13 16 16 17 17 17 17 18 20 20 20 18 18 17 17 16 16 16 16 15 15 15 15 14 15 15 14 14 15
9 9 9 12 15 14 16 18 15 12 14 15 12 12 14 12 10 9 8 8 8 5 1 2 1 4 1 3 3 4 6 3 4 7 7 7 7 7 7 8 9 10 9 8 10 9 10 10 11 14 15 16 16 14 14 14 14 14 15 15 16 17 19 20 19 19 20 21 18 18 17 17 20 20 16 15 13 14 14 13 13 14 15 14 14 14
4 7 4 5 11 14 17 19 18 17 19 18 16 13 11 11 12 13 11 7 5 5 2 2 1 0 0 2 0 3 4 5 4 6 8 7 7 6 7 8 9 10 10 11 10 8 9 11 13 14 15 16 14 14 14 15 14 13 15 15 15 16 18 19 21 20 21 20 18 18 16 16 15 15 15 15 15 15 15 14 14 15 16 17 14 15
7 10 6 3 10 12 12 14 10 8 11 12 12 11 11 10 9 9 5 4 5 5 3 3 2 1 0 1 1 2 4 5 4 5 6 7 7 8 9 9 9 10 10 9 9 10 11 10 11 15 16 15 14 14 14 15 14 14 14 14 14 15 17 20 20 20 20 18 17 18 16 15 16 15 15 16 15 16 16 20 24 21 18 18 23 30
14 14 9 11 12 13 15 13 11 13 16 17 16 8 3 3 4 7 8 7 3 2 2 3 2 2 3 2 0 2 4 5 6 6 7 7 7 8 9 10 10 10 10 10 11 12 11 12 13 14 15 15 14 14 14 15 14 14 13 13 14 14 15 16 18 19 18 18 17 18 18 18 17 18 16 16 17 16 17 17 16 23 29 31 31 31
Wind_Direction
193 186 187 218 236 226 212 213 231 260 40 309 260 266 272 283 281 273 272 279 351 307 265 277 287 292 285 275 278 280 276 277 278 286 274 272 271 278 312 302 298 299 300 357 325 289 291 303 302 306 309 309 304 285 287 282 260 247 239 229 222 204 199 201 198 201 200 204 209 215 218 220 210 209 208 210 211 208 206 195 190 187 188 186 184 186
218 215 220 238 251 260 260 259 264 274 262 258 270 271 276 267 273 271 293 306 19 286 278 271 287 295 294 282 264 264 274 279 283 274 264 263 280 331 318 311 313 307 316 319 308 313 308 346 336 328 327 337 336 343 347 306 296 277 257 248 239 210 202 208 207 203 202 207 206 206 214 215 214 208 207 213 207 209 203 198 192 194 190 188 187 187
201 219 231 240 255 60 335 264 244 249 260 255 251 274 287 266 264 276 270 356 62 306 291 302 300 293 286 276 275 271 271 269 268 255 268 311 310 303 304 316 323 323 319 324 343 352 8 359 1 359 359 0 357 344 357 2 343 318 281 257 245 224 207 210 207 205 207 205 209 208 219 210 218 221 223 221 219 205 205 200 197 197 194 194 192 186
240 228 239 255 80 248 245 239 248 254 246 255 254 247 255 273 306 299 177 75 107 314 298 312 299 287 266 267 277 278 249 257 253 302 326 276 285 289 306 332 316 325 338 349 356 6 11 14 12 10 5 358 357 6 5 359 351 332 301 272 247 241 223 216 206 207 208 208 197 189 167 162 219 244 211 216 218 206 206 209 202 203 202 198 196 191
239 37 38 49 232 220 249 241 242 251 263 226 229 259 267 271 274 265 299 338 312 294 131 296 273 278 325 285 136 218 217 254 343 255 255 252 248 303 334 340 2 1 7 2 6 14 17 15 16 14 7 2 4 360 354 349 346 341 328 309 275 248 223 218 214 200 200 175 180 192 179 310 225 277 249 231 237 227 221 219 210 213 205 205 203 196
270 288 122 66 79 197 230 256 235 238 265 267 221 229 257 280 287 286 294 335 306 286 63 351 332 282 229 339 355 355 302 277 91 326 316 350 345 18 12 14 25 22 23 24 27 27 25 22 15 15 14 13 3 354 348 350 352 349 342 336 323 281 243 213 213 201 204 213 209 195 202 218 223 231 222 223 222 212 209 211 209 205 205 206 209 208
274 44 182 221 173 170 215 246 260 166 254 269 284 142 262 268 281 287 294 322 292 300 55 18 318 296 211 254 272 274 260 279 318 314 9 19 33 48 47 33 20 18 15 19 36 32 25 18 18 19 18 14 7 353 344 357 0 1 0 353 344 331 323 136 176 176 188 201 209 211 214 218 220 228 232 226 222 220 215 208 209 204 199 203 203 205
163 122 113 152 186 201 225 255 210 191 230 254 87 206 163 214 234 276 286 238 274 319 263 204 211 281 298 203 200 219 249 298 321 342 29 49 59 55 50 44 38 36 26 26 41 39 32 25 21 17 14 16 12 356 358 8 8 4 2 1 6 11 10 43 141 174 199 212 211 214 220 231 238 239 253 217 216 220 212 204 208 206 205 203 208 209
183 153 172 152 186 186 220 231 115 189 197 36 168 243 357 338 344 229 258 293 295 328 312 168 190 270 268 126 199 275 350 277 36 355 9 67 66 38 49 51 48 40 35 38 41 37 30 24 22 21 20 16 14 12 11 13 11 5 2 7 19 27 27 35 79 183 199 220 233 225 229 238 242 252 257 275 212 231 209 213 213 209 205 199 204 209
285 163 215 182 166 222 196 95 175 164 227 124 120 109 104 104 78 227 280 295 288 299 273 156 192 272 289 160 206 103 288 343 39 331 2 87 72 51 46 45 41 36 34 39 43 39 36 29 25 23 25 28 24 19 16 21 19 13 6 18 25 26 24 20 26 13 233 226 243 239 241 250 256 258 258 256 258 235 222 221 222 215 211 207 203 207
75 150 338 195 220 279 89 48 353 295 44 111 172 274 224 136 227 160 4 290 295 249 264 169 188 227 290 153 212 154 166 80 358 337 354 36 74 60 53 51 43 35 34 34 35 36 35 32 29 25 33 26 27 26 28 24 20 14 13 18 29 27 24 22 18 5 348 308 274 261 256 254 256 263 266 264 251 239 227 231 226 219 219 214 211 207
178 127 227 228 46 89 112 97 55 56 131 278 331 329 323 246 149 194 174 199 260 271 61 129 193 192 240 209 272 54 11 32 329 350 351 11 51 46 41 37 35 36 33 30 30 28 23 22 23 27 30 27 25 29 29 25 22 21 20 25 33 28 25 21 16 11 357 340 314 296 291 281 273 267 267 259 257 246 233 228 232 220 216 217 214 211
229 217 203 349 226 195 161 219 130 104 148 183 128 298 288 287 340 265 159 246 213 264 117 92 110 262 238 238 292 305 274 190 268 28 22 45 59 50 44 41 39 35 37 34 28 25 25 24 19 20 24 25 26 27 27 25 24 25 27 27 32 32 26 23 20 12 1 347 334 322 308 297 291 282 275 271 264 261 248 237 232 223 217 214 211 213
269 74 150 211 289 209 184 208 153 225 168 177 201 187 216 277 248 262 270 262 287 265 73 44 175 248 275 269 227 245 228 74 75 59 61 71 70 62 50 44 43 37 37 38 34 27 25 24 22 24 28 27 24 25 25 24 24 25 29 29 33 31 29 28 25 20 10 358 341 329 317 308 303 295 286 278 273 265 259 248 242 234 229 223 217 215
286 269 202 155 216 151 191 212 211 332 156 194 175 175 214 229 243 272 255 268 271 290 93 208 119 237 339 340 18 176 33 52 71 73 71 71 65 60 55 51 44 40 36 30 35 34 26 22 23 23 24 25 24 23 24 21 21 24 29 30 32 32 29 28 26 23 18 8 354 340 326 311 304 298 294 289 285 276 267 256 249 246 242 235 231 222
225 258 69 151 11 149 182 207 86 103 84 117 179 23 29 234 139 244 251 255 278 287 239 159 223 328 251 77 161 119 83 83 74 73 77 64 62 58 53 44 41 36 34 34 32 30 29 26 23 24 23 22 20 22 24 26 25 25 26 28 30 31 29 28 26 27 21 14 4 357 342 328 311 299 293 289 284 280 275 270 261 256 249 243 240 234
185 253 99 145 100 204 134 106 192 160 250 137 148 202 219 25 200 272 285 221 17 272 257 264 255 250 268 264 263 127 98 87 75 71 68 64 53 55 51 45 39 37 36 29 30 26 26 27 26 25 23 19 20 20 23 24 24 25 26 27 31 33 32 29 29 30 25 18 13 6 360 351 337 320 306 298 293 287 283 272 266 263 260 252 241 240
273 278 127 128 237 204 52 338 9 343 105 111 210 226 55 209 17 251 274 170 231 250 256 234 266 277 279 297 113 114 109 82 82 75 71 64 58 60 52 43 38 33 33 43 41 39 37 36 32 29 27 24 22 19 19 21 23 25 27 24 25 25 26 24 21 22 23 19 16 11 6 358 350 337 323 311 301 294 287 279 272 265 261 255 248 236
18 281 248 212 241 63 335 169 252 166 303 265 164 350 235 228 236 196 228 230 241 244 259 229 250 258 260 263 263 194 127 126 106 96 84 70 63 62 64 54 41 36 34 29 32 31 29 31 31 30 31 30 28 27 25 20 19 20 23 24 26 26 23 21 21 21 20 18 16 11 6 359 352 347 337 326 315 304 292 285 277 271 267 265 252 240
86 268 282 45 95 112 121 179 241 169 171 137 308 255 78 311 253 240 204 255 253 263 260 256 242 254 228 251 263 267 110 125 127 108 91 78 73 75 73 72 57 49 42 41 41 47 48 52 51 43 38 31 28 24 21 22 25 26 22 23 22 21 20 20 19 17 20 15 13 11 12 12 8 359 345 335 328 317 307 298 292 282 271 263 257 242
270 274 273 122 224 132 228 181 238 236 191 197 216 237 202 223 35 332 322 240 237 260 256 270 259 248 250 356 354 109 120 131 124 112 97 84 75 75 62 47 58 52 44 38 36 29 33 36 36 40 36 35 35 37 31 29 30 30 27 24 18 15 9 11 12 15 16 11 11 12 11 9 9 6 359 349 336 325 319 311 302 293 282 280 265 253
244 200 247 251 253 227 256 201 228 273 270 257 208 218 217 221 240 253 252 192 229 237 255 259 259 248 210 4 79 110 120 113 117 126 121 120 109 86 81 58 50 53 45 40 27 21 16 19 19 23 30 27 27 26 26 28 30 28 27 21 19 15 13 5 3 3 358 4 8 12 12 11 9 8 4 358 353 343 331 319 313 308 300 283 274 260
284 253 250 252 241 256 264 283 145 202 180 247 244 270 291 293 294 265 273 258 249 236 246 253 276 229 61 32 88 107 118 118 124 122 118 119 111 108 88 71 58 55 45 35 36 27 18 15 10 12 15 16 16 14 14 16 20 19 19 20 16 13 8 7 359 357 356 355 360 4 5 6 7 5 9 8 4 357 347 336 321 313 305 298 288 272
131 256 278 252 267 263 267 268 218 145 201 217 214 210 189 233 222 248 259 325 292 285 262 253 244 212 341 81 99 102 101 109 111 127 134 129 129 100 71 49 42 39 31 32 25 21 16 14 14 14 14 15 16 16 16 16 15 14 14 13 10 8 2 359 358 354 357 355 355 359 7 8 1 359 1 3 357 354 351 344 335 319 307 299 291 285
272 234 230 292 290 272 259 235 232 93 136 221 269 238 242 271 277 270 286 263 258 208 242 255 260 263 146 141 121 123 143 140 144 157 166 152 145 115 75 51 37 29 24 20 16 10 10 13 12 11 7 7 6 6 7 8 10 11 11 11 8 3 359 356 354 354 355 356 357 360 0 359 3 0 356 353 349 347 343 340 338 333 317 304 291 279
90 318 327 270 261 267 275 276 283 276 146 59 263 267 284 295 285 287 255 249 250 191 222 242 258 272 106 173 173 178 174 163 172 177 181 177 164 149 131 98 61 48 35 24 15 10 10 1 358 1 3 1 1 360 355 359 2 2 2 5 2 358 356 353 355 352 355 357 357 355 357 356 354 354 353 349 345 342 341 340 337 329 323 318 303 283
243 183 207 228 258 269 273 282 337 125 263 262 253 244 265 266 247 241 262 267 258 282 272 290 296 287 280 263 250 212 178 194 183 184 188 179 172 170 178 190 157 147 132 47 53 7 347 4 356 356 353 354 350 349 349 349 352 353 353 355 358 356 353 348 349 350 353 354 355 353 355 353 350 347 346 345 341 338 336 335 333 333 329 321 308 298
203 251 235 246 243 254 263 266 271 274 274 275 275 271 268 258 256 260 250 251 269 296 265 228 261 268 265 268 267 268 167 193 187 183 181 185 184 183 194 201 219 193 195 221 28 13 0 354 349 348 345 342 344 341 341 347 346 348 346 345 348 350 351 349 346 346 347 347 350 350 351 351 345 342 339 337 337 332 334 334 333 332 329 326 319 313
250 263 257 253 255 256 261 265 267 268 267 271 271 272 270 268 266 259 256 264 272 259 269 282 284 279 275 273 282 281 262 212 173 186 181 177 187 206 221 239 281 345 346 349 346 342 340 336 334 333 330 332 330 336 338 340 343 341 341 334 339 343 344 343 342 343 344 344 344 345 341 341 341 337 337 333 332 335 335 333 331 329 326 325 324 318
256 257 259 247 260 253 257 261 265 267 271 270 266 266 264 262 260 259 264 267 265 265 271 279 274 272 277 274 276 317 108 128 132 150 172 187 214 216 246 303 336 345 334 329 321 321 316 311 309 308 313 305 309 313 320 323 328 333 331 331 333 337 339 339 336 336 337 337 337 335 335 334 334 336 333 331 329 330 330 329 328 327 327 326 325 322
264 274 282 273 247 242 240 253 262 266 269 268 264 262 261 256 254 254 264 260 264 269 264 261 259 262 261 319 85 106 109 121 153 198 209 227 211 231 248 267 292 302 300 300 311 309 307 298 292 288 285 287 289 295 300 304 307 314 315 319 327 330 336 336 330 331 329 330 329 328 328 330 330 331 332 330 324 319 324 325 326 323 323 323 324 322
352 281 359 312 270 257 247 260 264 275 270 262 268 267 261 259 261 259 256 246 256 260 263 266 265 265 259 90 106 118 137 152 215 244 243 240 227 225 245 255 267 293 303 305 304 304 300 296 289 283 282 287 291 292 295 298 300 299 302 306 314 321 325 327 324 324 321 319 322 319 323 326 328 328 325 326 320 317 314 314 316 318 317 319 321 319
250 311 331 309 279 268 266 18 21 1 303 271 239 239 249 255 253 259 262 258 253 264 268 259 261 329 113 135 145 161 144 255 236 261 256 255 244 238 244 249 255 278 286 289 295 294 293 292 290 288 289 290 294 298 297 299 295 293 294 297 299 309 309 312 313 309 311 312 314 316 316 323 324 322 321 322 319 310 307 308 310 310 311 313 312 313
219 231 261 261 268 268 267 282 64 296 249 237 167 249 251 258 261 261 258 252 252 245 274 338 71 114 126 134 145 187 203 248 263 268 266 268 270 256 250 246 249 261 277 277 277 277 278 279 278 280 281 283 286 289 292 289 287 288 290 284 288 291 296 298 299 298 299 304 304 308 313 316 319 316 316 317 315 311 303 309 308 308 306 302 302 302
232 248 257 255 263 267 271 268 266 246 258 31 97 331 17 2 310 264 265 266 272 276 143 160 139 141 156 108 166 239 275 272 265 261 262 260 254 257 259 257 249 253 266 274 272 272 275 280 282 281 280 282 286 291 289 284 282 285 283 276 279 284 288 291 292 293 293 295 298 302 307 313 316 315 315 316 314 308 305 305 306 306 307 307 302 300
237 238 258 249 252 282 165 216 249 254 95 307 261 151 88 309 267 279 270 259 248 204 220 197 160 145 170 204 239 237 250 268 294 279 270 271 260 257 261 256 254 251 259 267 279 284 288 289 291 292 291 290 287 284 282 283 286 285 283 281 277 285 288 287 288 286 290 288 290 294 299 308 309 311 313 316 314 309 304 304 304 304 306 305 300 293
231 243 240 261 221 253 242 248 248 302 285 264 258 203 189 237 235 222 267 282 138 204 168 164 164 178 183 229 231 232 231 303 284 265 238 237 253 254 247 250 245 243 248 262 269 277 283 289 289 290 288 286 286 289 289 292 292 287 282 277 274 278 281 282 281 282 282 281 283 286 287 295 301 304 306 308 308 304 302 302 303 303 306 300 295 292
232 229 235 250 239 242 265 270 276 274 264 302 6 343 320 270 15 329 59 276 135 178 141 144 170 191 223 241 239 219 128 265 276 282 231 201 229 254 259 252 249 244 248 260 266 268 275 283 292 294 295 298 296 294 296 294 296 292 287 283 285 285 282 282 280 283 282 280 282 276 278 282 289 292 296 301 297 297 296 295 297 296 299 296 295 292
230 234 237 236 264 260 264 259 253 254 262 99 246 222 207 152 23 258 12 288 115 166 232 154 263 268 231 254 237 149 202 241 265 278 292 170 221 245 255 252 243 240 246 256 266 278 291 303 309 305 299 294 292 300 305 302 298 289 283 284 285 281 277 275 278 277 279 283 283 278 274 276 277 280 286 288 289 290 290 291 296 296 300 293 291 289
161 208 198 239 241 228 248 250 253 254 252 15 357 287 186 128 123 321 298 291 100 230 196 192 233 253 259 239 235 212 223 259 273 293 315 307 289 277 270 261 250 244 247 257 266 280 304 308 304 297 297 295 296 304 303 301 294 284 281 281 282 277 272 275 278 280 283 282 280 277 274 273 273 272 277 281 283 284 282 288 293 294 296 295 292 290
173 266 203 223 232 242 241 251 260 261 261 254 248 213 105 200 202 253 259 327 193 225 222 204 238 246 250 252 220 232 226 241 270 289 294 300 289 275 265 259 260 264 272 285 304 1 314 305 298 293 294 294 296 298 298 298 293 287 286 285 283 275 282 291 291 293 288 284 280 276 274 276 275 275 273 276 282 283 283 283 286 289 291 293 293 289
236 141 285 241 231 238 237 253 252 273 262 195 222 132 173 135 214 252 334 140 207 217 233 208 227 239 237 240 245 242 257 259 262 273 281 283 277 271 274 273 273 276 284 298 309 313 317 307 298 293 290 292 297 299 303 306 299 295 296 295 284 289 304 299 302 298 291 283 276 273 273 275 274 273 276 280 281 280 280 279 278 279 282 285 285 286
235 183 238 231 199 240 242 255 268 267 20 103 114 57 202 206 280 91 273 209 180 246 234 222 218 240 233 245 242 248 256 262 268 272 275 277 278 278 277 281 294 305 313 321 321 331 325 311 304 303 301 305 308 316 323 329 311 301 299 291 295 308 305 305 304 297 290 283 277 273 277 277 278 277 281 280 277 274 275 277 277 276 277 276 275 272
228 260 249 249 180 261 256 237 220 272 286 160 181 215 187 228 335 311 316 302 293 222 227 242 230 231 237 239 249 252 250 258 267 268 270 270 271 277 291 316 331 318 313 311 311 315 325 308 306 306 308 310 311 315 321 323 311 306 303 299 311 309 307 306 304 298 288 282 279 277 282 281 282 279 276 277 278 276 274 274 272 271 271 273 272 273
189 220 224 256 209 205 246 269 263 149 198 180 197 250 272 278 271 265 260 265 273 279 241 239 260 250 229 238 247 254 264 259 263 270 279 288 299 314 332 329 323 309 303 305 311 319 322 319 317 315 310 308 309 317 322 325 317 310 304 308 316 313 314 313 310 302 293 291 288 285 286 286 283 282 277 273 276 277 277 277 274 273 268 265 266 264
239 240 314 325 249 255 268 262 270 266 259 259 213 225 255 262 263 251 231 241 233 242 249 264 276 279 272 229 244 258 253 263 277 285 290 297 305 314 326 317 308 302 302 310 318 336 336 325 315 309 305 305 309 319 319 321 326 315 312 316 316 315 313 311 307 301 296 294 291 291 293 290 288 284 280 279 277 274 272 270 269 266 268 264 260 260
247 228 202 243 268 278 267 260 241 251 263 265 268 243 218 223 258 267 253 247 265 272 273 248 258 269 274 275 247 261 272 287 292 292 296 298 301 312 318 311 307 315 326 326 329 344 326 325 313 308 309 305 311 322 322 328 324 316 313 312 311 309 306 303 299 296 294 292 293 294 291 287 288 288 285 280 276 269 267 266 265 264 266 262 263 263
260 218 226 237 249 246 253 258 263 260 256 262 265 273 270 260 250 243 239 254 269 277 277 272 241 253 225 250 245 260 275 298 299 293 295 296 303 311 309 308 315 318 320 324 321 328 321 316 311 307 309 306 314 320 318 317 313 312 310 306 306 306 305 300 297 296 294 294 294 292 291 288 285 284 282 279 274 272 270 266 262 263 261 261 261 265
237 112 208 200 239 247 257 261 265 269 270 267 257 245 245 255 262 263 266 267 258 248 155 123 83 256 234 259 260 265 277 277 269 284 289 298 305 308 313 316 315 313 316 321 321 330 320 317 313 310 310 305 309 310 308 305 303 303 302 300 299 299 297 295 296 294 291 292 292 289 289 286 284 282 282 280 277 270 265 264 264 262 262 255 253 253
234 233 190 188 256 254 248 251 245 260 272 268 254 239 239 243 251 259 250 213 222 222 171 174 136 111 167 228 253 266 269 284 285 293 291 298 305 310 312 314 312 312 313 317 316 316 313 313 312 307 304 302 305 302 298 296 296 294 292 292 290 293 290 292 293 292 292 291 290 290 289 288 286 285 284 282 280 279 273 262 260 261 260 265 259 257
227 235 222 232 235 251 252 246 231 243 262 269 277 275 227 217 216 242 244 238 180 131 135 165 185 195 207 208 340 301 289 291 300 309 300 300 302 305 305 310 313 314 314 319 316 313 315 312 310 303 299 299 299 295 293 291 292 291 288 289 284 287 285 286 292 293 293 293 291 290 291 289 287 287 284 282 282 280 280 283 272 262 264 266 269 267